| time (UTC) | temp F | wind direction | speed MPH | gust MPH | rain 1hr in | rain 24hr in | rain mn in | humidity % | barometer mb |
| 20260506032517 | 22 | 158 | 1.0 | 5.0 | 0.00 | 0.10 | 0.10 | 92 | 1009.5 |
| 20260506031516 | 22 | 0.0 | 0.0 | 0.00 | 0.10 | 0.10 | 92 | 1010.3 | |
| 20260506030536 | 22 | 0.0 | 2.0 | 0.00 | 0.10 | 0.10 | 92 | 1010.0 | |
| 20260506025537 | 22 | 0.0 | 1.0 | 0.00 | 0.10 | 0.10 | 92 | 1008.6 | |
| 20260506024516 | 22 | 0.0 | 0.0 | 0.00 | 0.10 | 0.10 | 92 | 1008.4 | |
| 20260506023517 | 22 | 0.0 | 2.0 | 0.00 | 0.10 | 0.10 | 91 | 1008.4 | |
| 20260506022516 | 22 | 0.0 | 0.0 | 0.00 | 0.11 | 0.10 | 91 | 1008.8 | |
| 20260506021516 | 23 | 0.0 | 0.0 | 0.00 | 0.13 | 0.10 | 91 | 1008.7 | |
| 20260506020516 | 23 | 0.0 | 1.0 | 0.00 | 0.13 | 0.10 | 90 | 1008.3 | |
| 20260506015516 | 23 | 0.0 | 2.0 | 0.00 | 0.13 | 0.10 | 90 | 1008.1 | |
| 20260506014536 | 23 | 0.0 | 2.0 | 0.00 | 0.13 | 0.10 | 90 | 1007.9 | |
| 20260506013516 | 24 | 0.0 | 2.0 | 0.00 | 0.13 | 0.10 | 90 | 1008.5 | |
| 20260506012516 | 24 | 0.0 | 2.0 | 0.00 | 0.13 | 0.10 | 90 | 1008.5 | |
| 20260506011516 | 24 | 0.0 | 2.0 | 0.00 | 0.13 | 0.10 | 90 | 1008.4 | |
| 20260506010516 | 24 | 0.0 | 2.0 | 0.00 | 0.13 | 0.10 | 90 | 1008.3 | |
| 20260506005516 | 25 | 158 | 1.0 | 2.0 | 0.00 | 0.13 | 0.10 | 90 | 1008.2 |
| 20260506004536 | 25 | 158 | 1.0 | 3.0 | 0.00 | 0.13 | 0.10 | 90 | 1007.9 |
| 20260506003536 | 25 | 180 | 2.0 | 6.0 | 0.00 | 0.13 | 0.10 | 89 | 1007.9 |
| 20260506002536 | 26 | 0.0 | 3.0 | 0.00 | 0.13 | 0.10 | 91 | 1008.7 | |
| 20260506001516 | 26 | 0.0 | 2.0 | 0.00 | 0.13 | 0.10 | 91 | 1008.4 | |
| 20260506000516 | 26 | 0.0 | 2.0 | 0.00 | 0.13 | 0.10 | 91 | 1008.4 | |
| 20260505235516 | 26 | 203 | 1.0 | 4.0 | 0.00 | 0.13 | 0.10 | 91 | 1008.1 |
| 20260505234516 | 26 | 203 | 1.0 | 2.0 | 0.00 | 0.13 | 0.10 | 91 | 1008.2 |
| 20260505233516 | 26 | 203 | 1.0 | 5.0 | 0.00 | 0.13 | 0.10 | 91 | 1008.0 |
| 20260505232536 | 26 | 203 | 1.0 | 3.0 | 0.00 | 0.14 | 0.10 | 92 | 1008.5 |
| 20260505231536 | 26 | 0.0 | 2.0 | 0.00 | 0.14 | 0.10 | 92 | 1008.2 | |
| 20260505230516 | 26 | 203 | 1.0 | 4.0 | 0.00 | 0.14 | 0.10 | 92 | 1008.0 |
| 20260505225516 | 26 | 158 | 1.0 | 5.0 | 0.00 | 0.14 | 0.10 | 92 | 1008.6 |
| 20260505224516 | 26 | 180 | 1.0 | 6.0 | 0.00 | 0.14 | 0.10 | 92 | 1008.7 |
| 20260505223516 | 26 | 0.0 | 3.0 | 0.01 | 0.14 | 0.10 | 92 | 1008.6 | |
| 20260505222516 | 27 | 0.0 | 0.0 | 0.01 | 0.14 | 0.10 | 91 | 1008.7 | |
| 20260505221536 | 27 | 203 | 1.0 | 3.0 | 0.01 | 0.14 | 0.10 | 91 | 1009.1 |
| 20260505220536 | 27 | 158 | 1.0 | 4.0 | 0.02 | 0.14 | 0.10 | 91 | 1008.4 |
| 20260505215536 | 28 | 158 | 2.0 | 5.0 | 0.02 | 0.14 | 0.10 | 90 | 1009.0 |
| 20260505214516 | 28 | 203 | 1.0 | 5.0 | 0.02 | 0.14 | 0.10 | 90 | 1008.6 |
| 20260505213616 | 29 | 180 | 2.0 | 5.0 | 0.01 | 0.13 | 0.09 | 91 | 1009.0 |
| 20260505212516 | 28 | 158 | 3.0 | 6.0 | 0.02 | 0.13 | 0.09 | 91 | 1008.7 |
| 20260505211515 | 29 | 248 | 1.0 | 6.0 | 0.02 | 0.13 | 0.09 | 92 | 1008.7 |
| 20260505210516 | 28 | 0.0 | 1.0 | 0.01 | 0.12 | 0.08 | 91 | 1008.4 | |
| 20260505205515 | 28 | 293 | 2.0 | 8.0 | 0.02 | 0.12 | 0.08 | 89 | 1008.4 |
| 20260505204515 | 29 | 0.0 | 0.0 | 0.02 | 0.12 | 0.08 | 90 | 1008.7 | |
| 20260505203515 | 29 | 203 | 1.0 | 4.0 | 0.02 | 0.12 | 0.08 | 90 | 1008.9 |
| 20260505202516 | 30 | 203 | 2.0 | 4.0 | 0.01 | 0.11 | 0.07 | 91 | 1008.8 |
| 20260505201515 | 29 | 203 | 3.0 | 7.0 | 0.01 | 0.11 | 0.07 | 91 | 1008.8 |
| 20260505200515 | 29 | 203 | 2.0 | 4.0 | 0.02 | 0.11 | 0.07 | 91 | 1008.9 |
| 20260505195516 | 29 | 225 | 1.0 | 2.0 | 0.01 | 0.10 | 0.06 | 92 | 1009.5 |
| 20260505194516 | 28 | 203 | 2.0 | 5.0 | 0.01 | 0.10 | 0.06 | 93 | 1008.3 |
| 20260505193516 | 27 | 0.0 | 3.0 | 0.01 | 0.10 | 0.06 | 92 | 1008.5 | |
| 20260505192516 | 27 | 248 | 3.0 | 7.0 | 0.02 | 0.10 | 0.06 | 92 | 1008.3 |
| 20260505191515 | 27 | 248 | 3.0 | 8.0 | 0.02 | 0.10 | 0.06 | 91 | 1008.2 |
| 20260505190515 | 28 | 248 | 2.0 | 7.0 | 0.02 | 0.09 | 0.05 | 90 | 1008.1 |
| 20260505185515 | 28 | 248 | 2.0 | 6.0 | 0.02 | 0.09 | 0.05 | 89 | 1008.1 |
| 20260505184515 | 29 | 225 | 1.0 | 4.0 | 0.02 | 0.09 | 0.05 | 90 | 1008.8 |
| 20260505183516 | 29 | 0.0 | 3.0 | 0.02 | 0.09 | 0.05 | 91 | 1008.9 | |
| 20260505182517 | 29 | 0.0 | 2.0 | 0.01 | 0.08 | 0.04 | 92 | 1008.4 | |
| 20260505181517 | 28 | 0.0 | 2.0 | 0.02 | 0.08 | 0.04 | 92 | 1008.5 | |
| 20260505180517 | 28 | 248 | 1.0 | 3.0 | 0.02 | 0.07 | 0.03 | 90 | 1008.3 |
| 20260505175537 | 28 | 203 | 2.0 | 5.0 | 0.02 | 0.07 | 0.03 | 91 | 1008.2 |
| 20260505174517 | 28 | 203 | 1.0 | 4.0 | 0.02 | 0.07 | 0.03 | 91 | 1008.3 |
| 20260505173517 | 29 | 0.0 | 2.0 | 0.02 | 0.07 | 0.03 | 92 | 1008.5 | |
| 20260505172517 | 28 | 203 | 1.0 | 3.0 | 0.02 | 0.07 | 0.03 | 92 | 1008.6 |
| 20260505171537 | 28 | 0.0 | 2.0 | 0.01 | 0.06 | 0.02 | 93 | 1008.7 | |
| 20260505170517 | 28 | 203 | 1.0 | 5.0 | 0.00 | 0.05 | 0.01 | 93 | 1008.6 |
| 20260505165517 | 28 | 203 | 1.0 | 4.0 | 0.00 | 0.05 | 0.01 | 93 | 1008.4 |
| 20260505164517 | 28 | 0.0 | 2.0 | 0.00 | 0.05 | 0.01 | 93 | 1008.4 | |
| 20260505163517 | 28 | 203 | 2.0 | 5.0 | 0.00 | 0.05 | 0.01 | 93 | 1008.4 |
| 20260505162538 | 28 | 0.0 | 2.0 | 0.00 | 0.05 | 0.01 | 94 | 1008.4 | |
| 20260505161517 | 28 | 180 | 1.0 | 3.0 | 0.00 | 0.05 | 0.01 | 94 | 1008.3 |
| 20260505160557 | 28 | 0.0 | 2.0 | 0.00 | 0.05 | 0.01 | 94 | 1008.1 | |
| 20260505152516 | 28 | 203 | 1.0 | 3.0 | 0.00 | 0.05 | 0.01 | 95 | 1008.1 |
| 20260505151537 | 27 | 203 | 2.0 | 5.0 | 0.00 | 0.05 | 0.01 | 94 | 1007.9 |
| 20260505150517 | 28 | 225 | 1.0 | 4.0 | 0.00 | 0.05 | 0.01 | 95 | 1007.7 |
| 20260505140517 | 27 | 203 | 1.0 | 3.0 | 0.00 | 0.05 | 0.01 | 95 | 1009.1 |
| 20260505124516 | 28 | 0.0 | 2.0 | 0.00 | 0.05 | 0.01 | 95 | 1008.7 | |
| 20260505123517 | 28 | 203 | 1.0 | 4.0 | 0.00 | 0.05 | 0.01 | 95 | 1008.5 |
| 20260505122516 | 28 | 203 | 1.0 | 5.0 | 0.00 | 0.05 | 0.01 | 95 | 1009.2 |
| 20260505121516 | 28 | 203 | 1.0 | 4.0 | 0.00 | 0.05 | 0.01 | 95 | 1009.2 |
| 20260505120516 | 28 | 158 | 4.0 | 7.0 | 0.00 | 0.05 | 0.01 | 95 | 1009.2 |
| 20260505115516 | 28 | 158 | 4.0 | 8.0 | 0.00 | 0.05 | 0.01 | 95 | 1009.5 |
| 20260505114516 | 29 | 135 | 4.0 | 8.0 | 0.00 | 0.05 | 0.01 | 95 | 1009.4 |
| 20260505113516 | 29 | 135 | 4.0 | 8.0 | 0.00 | 0.05 | 0.01 | 95 | 1009.2 |
| 20260505112516 | 29 | 158 | 3.0 | 10.0 | 0.01 | 0.05 | 0.01 | 95 | 1009.8 |
| 20260505111516 | 30 | 135 | 5.0 | 9.0 | 0.01 | 0.05 | 0.01 | 95 | 1010.4 |
| 20260505110516 | 30 | 158 | 3.0 | 7.0 | 0.01 | 0.05 | 0.01 | 95 | 1010.5 |
| 20260505101516 | 33 | 0.0 | 0.0 | 0.00 | 0.04 | 0.00 | 95 | 1012.1 | |
| 20260505100516 | 33 | 0.0 | 0.0 | 0.00 | 0.04 | 0.00 | 95 | 1012.0 | |
| 20260505095516 | 33 | 0.0 | 0.0 | 0.00 | 0.04 | 0.00 | 95 | 1012.8 | |
| 20260505094516 | 33 | 0.0 | 0.0 | 0.00 | 0.04 | 0.00 | 95 | 1012.8 | |
| 20260505093536 | 33 | 0.0 | 0.0 | 0.00 | 0.04 | 0.00 | 95 | 1012.9 | |
| 20260505092536 | 33 | 0.0 | 1.0 | 0.00 | 0.04 | 0.00 | 95 | 1013.4 | |
| 20260505091515 | 33 | 0.0 | 0.0 | 0.00 | 0.04 | 0.00 | 95 | 1013.4 | |
| 20260505090516 | 33 | 0.0 | 2.0 | 0.00 | 0.04 | 0.00 | 95 | 1012.7 | |
| 20260505085516 | 33 | 0.0 | 0.0 | 0.00 | 0.04 | 0.00 | 95 | 1012.5 | |
| 20260505084536 | 32 | 0.0 | 0.0 | 0.00 | 0.04 | 0.00 | 95 | 1012.6 | |
| 20260505083556 | 32 | 0.0 | 2.0 | 0.00 | 0.04 | 0.00 | 95 | 1012.7 | |
| 20260505082556 | 32 | 0.0 | 2.0 | 0.00 | 0.04 | 0.00 | 95 | 1012.2 | |
| 20260505081536 | 32 | 0.0 | 2.0 | 0.00 | 0.04 | 0.00 | 95 | 1012.3 | |
| 20260505080515 | 32 | 0.0 | 2.0 | 0.00 | 0.04 | 0.00 | 95 | 1012.3 | |
| 20260505075516 | 33 | 0.0 | 0.0 | 0.00 | 0.04 | 0.00 | 95 | 1010.4 | |
| 20260505074515 | 33 | 225 | 1.0 | 2.0 | 0.00 | 0.04 | 0.00 | 95 | 1010.4 |
| 20260505073515 | 33 | 0.0 | 1.0 | 0.00 | 0.04 | 0.00 | 95 | 1011.0 | |
| 20260505072515 | 33 | 0.0 | 0.0 | 0.00 | 0.04 | 0.00 | 95 | 1011.8 | |
| 20260505071516 | 33 | 0.0 | 2.0 | 0.00 | 0.04 | 0.00 | 95 | 1011.6 | |
| 20260505070515 | 33 | 0.0 | 0.0 | 0.00 | 0.04 | 0.00 | 95 | 1011.7 | |
| 20260505065515 | 33 | 0.0 | 2.0 | 0.00 | 0.04 | 0.00 | 95 | 1012.8 | |
| 20260505064515 | 33 | 0.0 | 0.0 | 0.00 | 0.04 | 0.00 | 95 | 1012.8 | |
| 20260505063515 | 33 | 0.0 | 0.0 | 0.00 | 0.04 | 0.00 | 95 | 1012.8 | |
| 20260505062517 | 33 | 0.0 | 0.0 | 0.00 | 0.04 | 0.00 | 95 | 1012.3 | |
| 20260505061517 | 33 | 0.0 | 0.0 | 0.00 | 0.04 | 0.00 | 95 | 1012.2 | |
| 20260505060517 | 33 | 0.0 | 0.0 | 0.00 | 0.04 | 0.00 | 94 | 1012.3 | |
| 20260505055516 | 33 | 0.0 | 0.0 | 0.00 | 0.04 | 0.04 | 94 | 1012.3 | |
| 20260505054516 | 33 | 315 | 1.0 | 2.0 | 0.00 | 0.04 | 0.04 | 94 | 1012.3 |
| 20260505053516 | 33 | 315 | 1.0 | 2.0 | 0.00 | 0.04 | 0.04 | 94 | 1012.4 |
| 20260505052556 | 33 | 293 | 1.0 | 3.0 | 0.00 | 0.04 | 0.04 | 94 | 1012.3 |
| 20260505051516 | 33 | 293 | 1.0 | 3.0 | 0.00 | 0.04 | 0.04 | 94 | 1011.7 |
| 20260505050516 | 33 | 293 | 1.0 | 2.0 | 0.00 | 0.04 | 0.04 | 94 | 1011.8 |
| 20260505041516 | 32 | 0.0 | 0.0 | 0.00 | 0.04 | 0.04 | 93 | 1011.1 | |
| 20260505040535 | 32 | 0.0 | 0.0 | 0.00 | 0.04 | 0.04 | 93 | 1011.5 | |
| 20260505035515 | 32 | 0.0 | 0.0 | 0.00 | 0.04 | 0.04 | 92 | 1011.0 | |
| 20260505034516 | 32 | 0.0 | 0.0 | 0.00 | 0.04 | 0.04 | 92 | 1010.9 | |
| 20260505033515 | 32 | 0.0 | 0.0 | 0.00 | 0.04 | 0.04 | 92 | 1010.6 |